Regional Weather Roundup
Issued by NWS New Orleans/Baton Rouge, LA

Home | Current Version | Previous Version | Graphics & Text | Print | Product List | Glossary On
Versions: 1 2 3 4 5 6 7 8 9 10 11 12 13 14 15 16 17 18 19 20 21 22 23 24 25 26 27 28 29 30 31 32 33 34 35 36 37 38 39 40 41 42 43 44 45 46 47 48 49 50
855
ASUS44 KLIX 210410
RWRLIX
NEW ORLEANS REGIONAL WEATHER ROUNDUP
NATIONAL WEATHER SERVICE NEW ORLEANS LA
1000 PM CST THU NOV 20 2014

NOTE: "FAIR" INDICATES FEW OR NO CLOUDS BELOW 12,000 FEET WITH NO
      SIGNIFICANT WEATHER AND/OR OBSTRUCTIONS TO VISIBILITY.
      SKY/WX - SKY CONDITION AND SIGNIFICANT WEATHER.
      TMP - AIR TEMPERATURE.     DP    - DEWPOINT TEMPERATURE.
      RH  - RELATIVE HUMIDITY.   PRES  - PRESSURE.
      HI  - HEAT INDEX.          WCI   - WIND CHILL INDEX.

*  THESE STATIONS ARE NOT NWS OR FAA STATIONS AND ARE NOT UNDER
   NWS QUALITY CONTROL.

LAZ038-040-048-061>063-065>067-069-210500-
SOUTHEAST LOUISIANA

CITY           SKY/WX    TMP DP  RH WIND       PRES   REMARKS
N.O. AUDUBON     N/A     56  47  71 MISG        N/A
N.O. INTL ARPT PTCLDY    55  45  68 SE9       30.24S
N.O. LAKEFRONT CLEAR     53  45  74 S8        30.25S
N.O. DOWNTOWN*   N/A     57  43  58 S6        30.25S
SLIDELL        CLEAR     46  42  86 CALM      30.24S
BATON ROUGE    CLEAR     51  44  77 E5        30.22S
BOOTHVILLE     CLEAR     56  49  77 E6        30.26S
BELLE CHASSE   PTCLDY    54  45  71 SE6       30.24S
BOGALUSA*        N/A     46  42  86 CALM      30.26R
NEW ROADS*       N/A     53  47  77 CALM      30.22R
GONZALES*        N/A     54  47  78 CALM      30.22S
HAMMOND*       CLEAR     48  43  81 CALM      30.25S
HOUMA*         CLEAR     52  47  84 E5        30.24S
PORT FOURCHON* CLEAR     63  48  59 E10G17    30.27S

$$

MSZ070-080>082-210500-
SOUTHERN MISSISSIPPI

CITY           SKY/WX    TMP DP  RH WIND       PRES   REMARKS
MCCOMB         CLEAR     48  43  82 S8        30.22S
GULFPORT       CLEAR     46  43  89 CALM      30.25S
BILOXI         CLEAR     49  49  99 NE2       30.25R
PASCAGOULA     CLEAR     40  40 100 CALM      30.26S FOG

$$

COASTAL OBSERVATIONS
LAKE AND NEARSHORE STATIONS

STATION/POSITION TIME  TEMP    WIND        PRES    WAVE
                       AIR SEA DIR/SP/G            HT/PER
                 (UTC) (F)     (DEG/KT/KT) (MB)    (FT/S)
PASCAGOULA       0400   59     160/  4/  5 1024.0
WAVELAND YACHT   0400   54     160/  2/  3 1023.3
GRAND ISLE       0400   62 58  130/  7/  9 1024.6
SOUTHWEST PASS   0400   60 73              1024.5
NEW CANAL        0400   56 53  170/  2/  4 1024.3
SHELL BEACH      0400   53 50  140/  6/  7 1024.0

OFFSHORE STATIONS

STATION/POSITION TIME  TEMP    WIND        PRES    WAVE
                       AIR SEA DIR/SP/G            HT/PER
                 (UTC) (F)     (DEG/KT/KT) (MB)    (FT/S)
64 S DAUPHIN ISL 0341   63 72   90/  8/ 10 1025.4    1/ 5

$$




USA.gov is the U.S. government's official web portal to all federal, state and local government web resources and services.